Date String (YYYY-MM-DD hh:mm:ss) UTC,Instrument flags,absolute air pressure of the measurement (hPa),sample flow rate (lpm),inlet stack bypass flow (lpm),air temperature of the measurement (°C),ambient temperature measured by the external sensor (°C),aerosol sample conditioner tube jacket temperature (°C),OPC LED temperature (°C),internal box temperature (°C),relative humidity of the measurement (%),span deviation,mass concentration of particles derived from Lorenz-Mie calculation of OPC scattering (μg/m³),mass concentration of particles derived from Lorenz-Mie calculation of OPC scattering (μg/m³),mass concentration of particles derived from Lorenz-Mie calculation of OPC scattering (μg/m³)
DateTimeUTC,F1_M11,P_M11,Q1_M11,Q2_M11,T1_M11,T2_M11,T3_M11,T4_M11,T5_M11,U1_M11,ZSPAN_M11,X2_M11,X0_M11,X1_M11
2023-08-01 07:00:00,SystemResetWarning,0837.1,5.03,000.00,033.0,028.6,000.0,040.5,032.2,34.9,0000.0,0003.84,0007.09,0003.46
2023-08-01 07:01:00,SystemResetWarning,0837.2,4.97,000.00,033.1,028.6,000.0,040.6,032.3,34.6,0000.0,0003.94,0006.94,0003.51
2023-08-01 07:02:00,SystemResetWarning,0837.1,5.01,000.00,033.2,027.2,000.0,040.5,032.2,34.4,0000.0,0004.01,0007.15,0003.57
2023-08-01 07:03:00,SystemResetWarning,0837.2,5.00,000.00,033.2,025.9,000.0,040.4,032.0,34.4,0000.0,0004.07,0007.32,0003.61
2023-08-01 07:04:00,SystemResetWarning,0837.2,5.01,000.00,033.1,025.7,000.0,040.3,031.7,34.7,0000.0,0004.10,0007.10,0003.66
2023-08-01 07:05:00,SystemResetWarning,0837.1,4.98,000.00,032.9,025.9,000.0,040.4,031.5,35.1,0000.0,0004.09,0006.70,0003.68
2023-08-01 07:06:00,SystemResetWarning,0837.1,5.02,000.00,032.8,026.3,000.0,040.4,031.7,35.2,0000.0,0004.11,0006.69,0003.70
2023-08-01 07:07:00,SystemResetWarning,0837.1,5.02,000.00,033.0,026.7,000.0,040.5,031.9,34.8,0000.0,0004.13,0006.65,0003.72
2023-08-01 07:08:00,SystemResetWarning,0837.2,4.97,000.00,033.2,027.1,000.0,040.5,032.0,34.5,0000.0,0004.15,0006.75,0003.73
2023-08-01 07:09:00,SystemResetWarning,0837.2,5.03,000.00,033.2,027.4,000.0,040.5,032.0,34.3,0000.0,0004.16,0006.87,0003.73
2023-08-01 07:10:00,SystemResetWarning,0837.2,5.00,000.00,033.2,027.6,000.0,040.6,032.0,34.3,0000.0,0004.18,0007.36,0003.73
2023-08-01 07:11:00,SystemResetWarning,0837.2,4.99,000.00,033.2,027.8,000.0,040.6,032.1,34.3,0000.0,0004.22,0007.58,0003.74
2023-08-01 07:12:00,SystemResetWarning,0837.2,4.99,000.00,033.2,028.0,000.0,040.7,032.1,34.4,0000.0,0004.25,0007.52,0003.77
2023-08-01 07:13:00,SystemResetWarning,0837.2,5.00,000.00,033.2,028.2,000.0,040.7,032.1,34.5,0000.0,0004.26,0007.58,0003.77
2023-08-01 07:14:00,SystemResetWarning,0837.2,5.00,000.00,033.1,028.3,000.0,040.7,032.2,34.6,0000.0,0004.27,0007.54,0003.80
2023-08-01 07:15:00,SystemResetWarning,0837.2,5.00,000.00,033.1,028.4,000.0,040.8,032.2,34.8,0000.0,0004.33,0007.64,0003.82
2023-08-01 07:16:00,SystemResetWarning,0837.2,5.00,000.00,033.0,028.5,000.0,040.8,032.2,34.9,0000.0,0004.38,0007.77,0003.85
2023-08-01 07:17:00,SystemResetWarning,0837.2,4.98,000.00,033.0,028.6,000.0,040.8,032.2,35.0,0000.0,0004.41,0008.01,0003.88
2023-08-01 07:18:00,SystemResetWarning,0837.2,5.04,000.00,033.0,028.7,000.0,040.8,032.3,34.9,0000.0,0004.43,0008.38,0003.90
2023-08-01 07:19:00,SystemResetWarning,0837.2,4.97,000.00,033.1,028.7,000.0,040.8,032.4,34.7,0000.0,0004.44,0008.38,0003.93
2023-08-01 07:20:00,SystemResetWarning,0837.2,5.01,000.00,033.2,027.5,000.0,040.7,032.3,34.5,0000.0,0004.48,0008.43,0003.95
2023-08-01 07:21:00,SystemResetWarning,0837.2,5.00,000.00,033.2,026.1,000.0,040.6,032.1,34.6,0000.0,0004.50,0008.26,0003.99
2023-08-01 07:22:00,SystemResetWarning,0837.2,5.01,000.00,033.1,025.7,000.0,040.5,031.8,34.8,0000.0,0004.54,0008.29,0004.01
2023-08-01 07:23:00,SystemResetWarning,0837.1,5.00,000.00,032.8,026.0,000.0,040.6,031.6,35.3,0000.0,0004.51,0008.31,0004.01
2023-08-01 07:24:00,SystemResetWarning,0837.0,5.01,000.00,032.9,026.4,000.0,040.6,031.8,35.3,0000.0,0004.53,0008.33,0004.04
2023-08-01 07:25:00,SystemResetWarning,0837.1,5.00,000.00,033.1,026.7,000.0,040.6,032.0,34.9,0000.0,0004.56,0008.41,0004.05
2023-08-01 07:26:00,SystemResetWarning,0837.1,4.97,000.00,033.2,027.1,000.0,040.6,032.1,34.5,0000.0,0004.55,0008.40,0004.05
2023-08-01 07:27:00,SystemResetWarning,0837.1,5.01,000.00,033.3,027.4,000.0,040.6,032.1,34.3,0000.0,0004.56,0008.33,0004.06
2023-08-01 07:28:00,SystemResetWarning,0837.1,5.02,000.00,033.3,027.7,000.0,040.7,032.1,34.4,0000.0,0004.60,0008.36,0004.06
2023-08-01 07:29:00,SystemResetWarning,0837.1,4.99,000.00,033.3,027.9,000.0,040.7,032.1,34.6,0000.0,0004.65,0008.05,0004.07
2023-08-01 07:30:00,SystemResetWarning,0837.1,5.00,000.00,033.3,028.0,000.0,040.8,032.2,34.8,0000.0,0004.67,0008.09,0004.07
2023-08-01 07:31:00,SystemResetWarning,0837.0,5.00,000.00,033.2,028.2,000.0,040.8,032.2,34.9,0000.0,0004.72,0008.13,0004.10
2023-08-01 07:32:00,SystemResetWarning,0836.9,5.00,000.00,033.2,028.3,000.0,040.8,032.2,35.1,0000.0,0004.76,0008.19,0004.12
2023-08-01 07:33:00,SystemResetWarning,0836.9,5.01,000.00,033.3,028.4,000.0,040.9,032.3,34.7,0000.0,0004.76,0008.04,0004.14
2023-08-01 07:34:00,SystemResetWarning,0836.8,4.98,000.00,033.4,028.5,000.0,040.9,032.4,34.6,0000.0,0004.80,0008.54,0004.16
2023-08-01 07:35:00,SystemResetWarning,0836.8,5.01,000.00,033.4,028.6,000.0,040.9,032.4,34.6,0000.0,0004.80,0008.89,0004.18
2023-08-01 07:36:00,SystemResetWarning,0836.8,5.00,000.00,033.4,028.6,000.0,040.9,032.4,34.5,0000.0,0004.84,0008.91,0004.21
2023-08-01 07:37:00,SystemResetWarning,0836.8,4.99,000.00,033.4,028.7,000.0,041.0,032.4,34.5,0000.0,0004.85,0008.88,0004.24
2023-08-01 07:38:00,SystemResetWarning,0836.8,4.99,000.00,033.3,028.5,000.0,041.0,032.4,34.5,0000.0,0004.85,0008.90,0004.27
2023-08-01 07:39:00,SystemResetWarning,0836.8,5.00,000.00,033.3,027.0,000.0,040.8,032.2,34.3,0000.0,0004.86,0008.91,0004.29
2023-08-01 07:40:00,SystemResetWarning,0836.7,5.01,000.00,033.2,026.0,000.0,040.7,032.1,34.5,0000.0,0004.83,0008.77,0004.30
2023-08-01 07:41:00,SystemResetWarning,0836.6,5.00,000.00,033.0,025.9,000.0,040.7,031.8,34.9,0000.0,0004.83,0008.72,0004.33
2023-08-01 07:42:00,SystemResetWarning,0836.6,5.00,000.00,032.9,026.2,000.0,040.7,031.7,35.3,0000.0,0004.85,0008.86,0004.34
2023-08-01 07:43:00,SystemResetWarning,0836.7,5.03,000.00,032.9,026.6,000.0,040.7,031.9,35.0,0000.0,0004.83,0008.78,0004.34
2023-08-01 07:44:00,SystemResetWarning,0836.7,4.96,000.00,033.0,026.9,000.0,040.7,032.0,34.6,0000.0,0004.83,0008.87,0004.34
2023-08-01 07:45:00,SystemResetWarning,0836.8,5.02,000.00,033.1,027.2,000.0,040.7,032.0,34.6,0000.0,0004.85,0008.77,0004.34
2023-08-01 07:46:00,SystemResetWarning,0836.8,5.01,000.00,033.1,027.5,000.0,040.7,032.0,34.6,0000.0,0004.87,0008.36,0004.33
2023-08-01 07:47:00,SystemResetWarning,0836.8,4.99,000.00,033.0,027.7,000.0,040.7,032.1,34.7,0000.0,0004.87,0008.40,0004.33
2023-08-01 07:48:00,SystemResetWarning,0836.8,5.00,000.00,033.0,027.9,000.0,040.8,032.1,34.9,0000.0,0004.89,0008.52,0004.33
2023-08-01 07:49:00,SystemResetWarning,0836.8,5.00,000.00,032.9,028.1,000.0,040.8,032.1,35.0,0000.0,0004.91,0008.60,0004.33
2023-08-01 07:50:00,SystemResetWarning,0836.8,4.99,000.00,032.9,028.2,000.0,040.8,032.1,35.0,0000.0,0004.92,0008.59,0004.33
2023-08-01 07:51:00,SystemResetWarning,0836.8,5.02,000.00,032.9,028.3,000.0,040.8,032.2,35.1,0000.0,0004.94,0008.75,0004.33
2023-08-01 07:52:00,SystemResetWarning,0836.8,4.98,000.00,033.1,028.4,000.0,040.8,032.3,34.8,0000.0,0004.93,0008.83,0004.32
2023-08-01 07:53:00,SystemResetWarning,0836.8,5.00,000.00,033.2,028.4,000.0,040.8,032.3,34.5,0000.0,0004.90,0008.67,0004.31
2023-08-01 07:54:00,SystemResetWarning,0836.7,5.00,000.00,033.2,028.5,000.0,040.8,032.3,34.4,0000.0,0004.90,0008.82,0004.29
2023-08-01 07:55:00,SystemResetWarning,0836.6,4.99,000.00,033.2,028.6,000.0,040.8,032.3,34.3,0000.0,0004.94,0008.92,0004.30
2023-08-01 07:56:00,SystemResetWarning,0836.7,4.99,000.00,033.2,028.6,000.0,040.8,032.3,34.3,0000.0,0004.92,0008.64,0004.31
2023-08-01 07:57:00,SystemResetWarning,0836.6,5.01,000.00,033.1,028.7,000.0,040.9,032.4,34.3,0000.0,0004.94,0008.48,0004.33
2023-08-01 07:58:00,SystemResetWarning,0836.6,5.00,000.00,033.1,028.7,000.0,040.9,032.4,34.4,0000.0,0004.96,0008.50,0004.34
2023-08-01 07:59:00,SystemResetWarning,0836.6,5.00,000.00,033.1,028.7,000.0,040.9,032.4,34.5,0000.0,0004.96,0008.51,0004.34
